Location: Vancouver
(49.2500°N, 123.1330°W)
Time: 07:16:14
(UTC-07:00)

ISS - All Passes

Search period start: 05 May 2016 00:00
Search period end: 15 May 2016 00:00
Orbit: 402 x 405 km, 51.6° (Epoch: 05 May)

Date Brightness Start Highest point End Pass type
(mag) Time Alt. Az. Time Alt. Az. Time Alt. Az.
05 May - 07:16:36 10° SSW 07:19:26 27° SE 07:22:16 10° E daylight
05 May - 08:52:25 10° WSW 08:55:41 78° NNW 08:58:58 10° ENE daylight
05 May - 10:29:08 10° WNW 10:32:21 54° N 10:35:35 10° E daylight
05 May - 12:05:40 10° WNW 12:08:56 73° SSW 12:12:11 10° ESE daylight
05 May - 13:42:50 10° W 13:44:57 16° SW 13:47:05 10° S daylight
06 May - 06:24:51 10° S 06:27:05 17° SE 06:29:20 10° E daylight
06 May - 07:59:53 10° WSW 08:03:09 76° SSE 08:06:25 10° ENE daylight
06 May - 09:36:31 10° W 09:39:44 54° N 09:42:57 10° ENE daylight
06 May - 11:13:07 10° WNW 11:16:24 81° NNE 11:19:40 10° ESE daylight
06 May - 12:49:50 10° W 12:52:37 26° SW 12:55:24 10° SSE daylight
07 May - 05:34:15 10° SE 05:34:48 10° SE 05:35:22 10° SE daylight
07 May - 07:07:28 10° SW 07:10:38 50° SSE 07:13:49 10° ENE daylight
07 May - 08:43:52 10° W 08:47:06 59° N 08:50:21 10° ENE daylight
07 May - 10:20:33 10° WNW 10:23:48 64° N 10:27:03 10° E daylight
07 May - 11:57:06 10° WNW 12:00:12 41° SSW 12:03:18 10° SE daylight
08 May - 06:15:14 10° SSW 06:18:11 32° SSE 06:21:09 10° E daylight
08 May - 07:51:14 10° W 07:54:29 72° NNW 07:57:46 10° ENE daylight
08 May - 09:27:57 10° WNW 09:31:10 55° N 09:34:24 10° E daylight
08 May - 11:04:28 10° WNW 11:07:42 64° SSW 11:10:57 10° ESE daylight
08 May - 12:41:53 10° WSW 12:43:40 14° SW 12:45:27 10° S daylight
09 May - 05:23:18 10° S 05:25:47 20° SE 05:28:15 10° E daylight
09 May - 06:58:37 10° WSW 07:01:54 85° SSE 07:05:10 10° ENE daylight
09 May - 08:35:17 10° W 08:38:31 53° N 08:41:44 10° ENE daylight
09 May - 10:11:51 10° WNW 10:15:09 89° NNE 10:18:25 10° ESE daylight
09 May - 11:48:41 10° W 11:51:18 22° SW 11:53:56 10° SSE daylight
10 May - 04:32:00 10° SSE 04:33:25 12° SE 04:34:51 10° ESE visible
10 May - 06:06:07 10° SW 06:09:20 58° SSE 06:12:33 10° ENE daylight
10 May - 07:42:36 10° W 07:45:50 57° N 07:49:04 10° ENE daylight
10 May - 09:19:15 10° WNW 09:22:31 68° NNE 09:25:47 10° E daylight
10 May - 10:55:50 10° W 10:58:52 35° SSW 11:01:53 10° SE daylight
11 May - 05:13:46 10° SW 05:16:49 37° SSE 05:19:52 10° E daylight
11 May - 06:49:54 10° W 06:53:10 67° NNW 06:56:26 10° ENE daylight
11 May - 08:26:37 10° WNW 08:29:51 57° N 08:33:05 10° E daylight
11 May - 10:03:08 10° WNW 10:06:21 56° SSW 10:09:33 10° SE daylight
11 May - 11:40:58 10° WSW 11:42:14 12° SW 11:43:30 10° SSW daylight
12 May - 04:21:41 10° SSW 04:24:20 23° SE 04:27:01 10° E visible
12 May - 05:57:14 10° WSW 06:00:31 87° NNW 06:03:49 10° ENE daylight
12 May - 07:33:56 10° WNW 07:37:09 53° N 07:40:22 10° E daylight
12 May - 09:10:29 10° WNW 09:13:46 83° SSW 09:17:02 10° ESE daylight
12 May - 10:47:26 10° W 10:49:52 19° SW 10:52:17 10° S daylight
13 May - 03:30:03 10° S 03:31:56 14° SE 03:33:48 10° ESE visible
13 May - 05:04:39 10° WSW 05:07:54 66° SSE 05:11:09 10° ENE daylight
13 May - 06:41:12 10° W 06:44:26 55° N 06:47:40 10° ENE daylight
13 May - 08:17:50 10° WNW 08:21:07 74° NNE 08:24:23 10° E daylight
13 May - 09:54:28 10° W 09:57:24 31° SW 10:00:19 10° SSE daylight
14 May - 04:12:13 10° SW 04:15:19 42° SSE 04:18:27 10° ENE visible
14 May - 05:48:28 10° W 05:51:43 63° N 05:54:59 10° ENE daylight
14 May - 07:25:10 10° WNW 07:28:25 60° N 07:31:40 10° E daylight
14 May - 09:01:41 10° WNW 09:04:52 49° SSW 09:08:02 10° SE daylight
